This is the latest recevied weather packets stored in our database for station/object KG4GJX. If no packets are shown the sender has not sent any weather packets the latest 10 day(s).
| Time | Temp. | Humidity | Pressure | Rain* | Wind** | Luminosity | Snow |
|---|---|---|---|---|---|---|---|
| 1777395324 | 20° C | 94% | 1019.3 hPa | 0 mm | - | - | - |
| 1777394661 | 20° C | 96% | 1019.3 hPa | 0 mm | - | - | - |
| 1777393999 | 19.44° C | 98% | 1019.3 hPa | 0 mm | - | - | - |
| 1777393336 | 18.89° C | 99% | 1019.3 hPa | 0 mm | - | - | - |
| 1777392674 | 18.89° C | 100% | 1019.6 hPa | 0 mm | - | - | - |
| 1777392011 | 18.33° C | 100% | 1019.6 hPa | 0 mm | - | - | - |
| 1777391349 | 17.78° C | 100% | 1019.6 hPa | 0 mm | - | - | - |
| 1777390687 | 17.78° C | 100% | 1019.6 hPa | 0 mm | - | - | - |
| 1777390024 | 16.67° C | 100% | 1019.6 hPa | 0 mm | - | - | - |
| 1777389362 | 16.11° C | 100% | 1019.6 hPa | 0 mm | - | - | - |
| 1777388699 | 15.56° C | 100% | 1019.6 hPa | 0 mm | - | - | - |
| 1777388037 | 15° C | 100% | 1019.6 hPa | 0 mm | - | - | - |
| 1777387374 | 14.44° C | 100% | 1019.3 hPa | 0 mm | - | - | - |
| 1777386712 | 15° C | 100% | 1019.9 hPa | 0 mm | - | - | - |
| 1777386050 | 14.44° C | 100% | 1020.3 hPa | 0.25 mm | - | - | - |
| 1777385387 | 14.44° C | 100% | 1020.3 hPa | 0.25 mm | - | - | - |
| 1777384724 | 14.44° C | 100% | 1020.6 hPa | 1.02 mm | - | - | - |
| 1777384062 | 14.44° C | 100% | 1021.3 hPa | 1.78 mm | - | - | - |
| 1777383400 | 14.44° C | 100% | 1020.3 hPa | 2.03 mm | - | - | - |
| 1777382737 | 14.44° C | 100% | 1019.6 hPa | 1.78 mm | - | - | - |
| 1777382075 | 13.89° C | 100% | 1020.3 hPa | 1.78 mm | - | - | - |
| 1777381412 | 14.44° C | 100% | 1020.6 hPa | 1.27 mm | - | - | - |
| 1777380750 | 14.44° C | 100% | 1021.3 hPa | 0.25 mm | - | - | - |
| 1777380088 | 14.44° C | 100% | 1021.3 hPa | 0.25 mm | - | - | - |
| 1777379425 | 14.44° C | 100% | 1020.9 hPa | 0.51 mm | - | - | - |
* Rain latest hour (hover to see other rain measurements)
** Current wind speed in m/s (hover to see current wind gust speed)